GFSFLT1_850_rhum_276.txt.gz
RH
84 79 75 69 69 63 43 37 36 40 40 45 54 64 86 88 70 67 70 54 40 77 57 46 73 39 18 13 25 50 55 35
71 68 63 62 55 43 38 38 41 46 59 70 77 85 90 91 80 81 59 49 41 32 23 17 56 36 14 10 8 17 42 48
61 62 60 57 50 47 44 47 73 72 68 70 74 82 83 74 70 65 60 50 40 21 3 5 10 10 7 7 7 12 34 53
57 58 60 58 56 50 62 70 70 69 69 62 61 74 84 86 90 74 62 53 38 12 2 4 7 7 6 8 10 17 30 47
54 56 59 59 59 58 65 70 69 63 71 68 74 73 78 79 83 77 65 49 38 8 2 5 6 6 5 7 15 22 24 43
50 52 57 59 64 66 69 70 69 66 71 74 71 73 75 84 82 77 72 58 42 10 3 5 6 5 5 9 19 28 22 32
46 48 55 57 65 70 72 69 68 70 71 77 77 80 81 82 82 77 72 64 49 14 3 5 6 5 6 10 30 43 26 30
42 49 54 56 64 70 70 68 71 74 79 82 87 86 80 78 76 73 68 60 51 7 3 6 6 5 6 10 45 42 30 27
42 48 52 54 62 70 72 70 72 80 87 91 88 78 72 75 71 67 64 56 22 5 4 6 6 6 8 10 53 41 32 33
42 46 50 52 59 70 73 68 71 82 86 83 76 74 76 72 67 72 61 26 14 8 6 8 9 10 12 13 53 53 32 38
42 45 51 52 57 67 74 69 71 82 84 75 68 66 69 71 72 66 41 10 6 6 7 10 15 17 17 16 26 35 44 42
40 44 48 53 57 64 73 74 75 82 82 70 64 61 64 65 63 43 16 9 7 6 7 8 13 17 18 17 22 56 33 46
38 43 46 55 60 65 73 80 80 83 75 67 56 60 62 59 45 25 11 9 10 7 7 8 13 15 16 18 24 24 31 45
39 43 47 54 62 68 76 86 85 85 77 62 52 50 55 50 33 21 10 10 10 8 9 10 11 10 13 22 34 22 20 26
39 43 48 55 63 69 78 88 88 85 73 59 56 54 50 39 34 22 14 13 9 7 9 8 8 12 19 41 22 13 14 17
37 44 50 56 64 71 79 83 86 82 72 66 61 54 43 42 39 26 17 12 10 9 9 11 14 19 44 34 26 14 13 13
37 42 50 56 63 70 76 80 83 82 76 71 62 50 47 45 39 26 19 14 12 16 20 22 27 30 40 35 27 14 12 12
31 42 46 53 60 67 75 77 79 81 73 67 56 50 51 48 42 32 23 20 21 31 31 40 51 49 44 35 24 16 12 16
33 36 45 52 58 65 73 76 79 77 73 60 54 52 52 51 47 39 31 24 27 29 40 52 53 46 48 51 37 18 12 28

GFSFLT1_850_rhum_279.txt.gz
RH
84 89 84 76 71 61 48 42 39 45 49 55 56 55 55 55 53 52 45 32 31 15 20 10 10 7 6 6 7 11 7 6
84 81 73 68 62 48 37 35 41 43 48 54 60 64 66 58 54 51 46 36 26 6 5 6 7 6 6 6 7 9 8 5
77 72 65 57 45 40 36 40 55 60 67 72 73 68 77 72 67 58 56 45 27 3 3 6 8 6 5 6 7 10 13 10
67 64 62 51 42 41 39 51 69 71 70 69 70 77 82 81 79 70 59 40 27 4 3 5 7 6 5 6 7 8 14 26
64 62 60 47 42 43 47 52 69 68 63 61 74 78 84 85 80 70 60 48 37 10 3 5 6 5 5 7 9 9 9 12
60 59 58 52 45 48 56 61 62 62 60 67 78 79 85 82 77 70 68 58 44 30 2 4 6 5 5 8 10 12 10 12
55 56 58 56 54 58 66 66 60 61 74 75 76 75 73 77 80 78 73 67 55 44 4 4 5 5 6 9 15 14 15 14
53 53 56 57 60 60 68 68 66 65 69 75 75 78 79 80 83 78 72 66 59 41 4 4 5 5 7 10 16 16 17 15
50 48 52 56 58 61 69 66 66 66 68 68 70 68 71 73 70 70 68 64 60 15 5 4 5 5 8 10 15 16 17 17
47 46 49 54 57 61 66 64 68 68 69 71 73 64 53 57 64 64 68 60 36 6 4 5 5 6 8 11 13 18 19 22
44 45 49 53 54 56 62 65 70 70 73 72 70 62 54 52 56 60 59 49 18 4 4 6 6 8 9 11 13 17 23 25
41 44 48 50 52 53 57 65 70 71 75 75 71 64 54 54 51 53 47 31 9 5 5 6 8 10 11 12 14 18 23 25
40 43 46 50 51 54 58 66 68 71 74 76 74 65 57 55 51 47 40 27 8 5 6 7 9 11 12 12 16 18 17 15
39 42 45 50 53 55 59 67 70 70 76 79 79 69 62 54 48 44 39 25 10 5 6 7 9 10 14 16 14 20 12 12
38 40 44 48 54 57 60 66 72 75 79 83 82 69 63 56 48 42 40 29 13 6 6 7 8 10 16 17 20 23 14 11
35 39 44 48 56 62 65 68 73 80 84 86 84 74 66 58 45 43 42 34 16 8 7 8 9 12 19 19 25 29 19 12
28 40 42 47 53 58 65 70 75 82 87 85 82 72 67 55 44 44 44 36 22 11 10 11 12 14 19 28 28 30 21 13
26 34 44 46 49 53 59 64 70 78 84 83 81 70 64 55 47 47 45 40 28 14 11 16 15 14 19 30 28 30 24 16
32 33 43 48 50 54 58 62 66 73 78 79 77 69 62 54 48 48 47 44 36 20 17 22 24 18 21 28 29 32 31 22

GFSFLT1_850_rhum_282.txt.gz
RH
87 76 75 74 67 62 54 50 51 50 48 51 44 45 41 42 43 42 35 22 14 4 3 5 6 6 5 5 5 5 7 53
90 83 79 73 66 63 50 46 51 46 43 42 44 47 48 46 48 47 42 30 15 3 2 4 6 5 5 5 5 4 9 55
94 86 78 70 60 53 44 38 42 45 47 51 52 55 60 60 57 54 46 26 14 2 3 4 6 5 5 6 5 4 4 11
91 84 75 62 53 43 38 40 50 54 54 58 68 72 68 62 68 62 52 33 23 5 3 5 5 5 5 7 7 6 5 5
84 77 71 55 44 41 39 50 53 54 61 62 58 58 62 71 75 66 55 48 37 22 3 4 5 5 5 7 8 8 8 6
78 71 69 59 41 42 43 53 55 57 64 60 64 69 76 79 78 73 64 56 50 39 8 3 5 5 5 7 9 10 9 9
71 68 65 58 41 44 51 52 55 65 71 66 68 71 73 74 73 73 65 60 59 51 19 3 4 5 5 7 10 12 12 11
67 64 62 58 45 46 55 57 58 64 66 68 70 72 77 76 68 65 62 60 60 55 26 3 4 5 6 8 11 15 15 13
64 60 58 55 49 48 53 60 61 62 67 69 73 74 78 76 67 58 54 60 62 57 18 4 4 6 6 8 13 16 17 16
66 58 56 54 51 50 52 56 64 62 67 71 75 76 79 72 65 64 62 62 62 51 12 4 4 6 8 9 12 15 18 20
68 56 54 52 48 50 54 56 57 58 67 69 72 72 78 76 64 57 56 59 53 35 9 4 5 5 8 10 13 15 19 24
67 56 52 48 47 49 52 56 57 57 64 69 72 74 77 67 59 54 55 50 43 26 8 5 5 5 8 10 13 15 20 22
62 55 50 47 46 49 52 53 55 56 60 69 73 77 76 67 61 57 57 50 39 23 9 6 5 6 9 11 13 16 22 18
58 52 47 44 44 49 52 54 54 58 63 68 73 78 78 73 61 55 54 45 38 26 14 7 7 8 12 12 12 18 25 15
52 48 44 42 43 46 51 54 56 60 65 69 73 76 77 77 64 62 54 43 41 31 19 9 7 9 12 11 14 21 28 25
45 44 43 42 45 48 50 53 56 61 68 70 73 77 80 82 71 58 60 43 42 33 24 13 9 9 12 15 17 26 31 29
44 45 44 44 44 46 50 52 56 62 70 72 76 80 83 86 75 60 59 45 44 38 31 19 11 11 14 19 20 24 33 29
32 32 32 41 43 45 49 51 57 63 70 74 79 83 86 85 75 63 54 47 46 42 36 25 14 14 16 21 27 24 29 30
34 34 37 40 44 48 52 56 60 66 71 76 80 84 86 84 75 62 57 47 47 46 42 32 20 15 18 24 33 32 29 34

GFSFLT1_850_rhum_285.txt.gz
RH
82 71 80 87 87 82 63 60 56 52 44 52 51 45 40 37 36 34 29 18 8 3 3 4 5 5 5 5 5 10 42 52
86 76 82 77 69 58 52 49 48 46 41 46 48 47 42 40 38 38 30 16 8 2 3 4 5 5 5 5 6 33 56 63
90 80 75 72 63 55 50 47 42 41 42 45 51 48 48 45 42 44 35 22 12 3 2 4 5 5 5 6 6 13 48 61
93 86 80 72 65 52 44 44 41 41 46 52 53 56 48 46 48 50 44 36 24 8 2 3 4 5 5 6 6 6 6 17
87 87 83 73 62 49 45 44 42 46 50 48 45 47 50 55 55 53 53 46 41 26 6 2 4 5 5 6 7 6 6 6
82 88 80 76 62 47 40 41 48 51 46 48 51 63 69 66 56 51 57 53 50 44 25 3 3 5 5 6 8 8 8 7
78 82 83 76 62 47 39 44 51 51 47 54 56 64 71 67 59 54 58 57 54 53 45 8 3 4 5 6 9 10 9 8
78 84 86 76 65 45 42 47 51 52 52 58 56 65 72 68 64 57 58 60 58 58 53 18 4 4 5 6 8 12 13 12
80 81 82 74 67 48 42 43 49 50 51 56 60 68 72 69 66 62 61 61 61 56 51 24 4 4 5 6 8 12 14 15
76 78 78 71 65 55 39 41 48 50 50 56 66 68 71 68 68 68 64 68 60 61 50 23 6 5 6 7 9 12 14 16
78 76 74 69 64 58 45 40 42 48 53 58 62 63 68 71 71 74 71 67 64 64 52 22 7 6 7 8 10 12 15 19
74 75 73 65 62 58 54 46 46 51 57 59 59 60 64 70 72 78 74 67 61 58 48 21 9 7 8 9 11 12 16 20
61 64 70 65 60 58 54 50 50 52 56 59 58 60 66 70 76 80 68 61 62 56 41 21 12 8 8 10 11 13 17 21
63 70 69 66 60 57 54 48 50 53 56 60 60 62 68 71 76 78 68 62 60 55 42 32 17 10 9 10 11 12 18 23
55 60 61 62 59 56 53 48 49 53 56 59 61 61 65 70 76 81 76 65 59 60 42 34 22 14 12 12 11 13 20 28
57 55 55 57 58 56 53 48 47 50 55 58 59 62 68 73 78 82 82 69 59 83 43 38 27 18 14 13 13 16 22 32
48 49 57 58 57 55 52 48 45 49 54 56 62 62 69 73 81 84 84 83 66 83 48 42 36 25 16 14 16 16 22 32
46 47 48 49 50 50 50 45 45 48 54 59 59 63 69 73 83 86 86 84 77 75 47 45 40 32 20 17 21 22 26 31
37 37 40 45 46 46 46 48 49 49 55 59 59 64 70 77 84 85 88 87 74 76 56 48 43 38 26 24 26 30 35 35

GFSFLT1_850_rhum_288.txt.gz
RH
88 89 90 83 80 97 87 82 77 63 56 54 47 45 39 38 35 31 23 12 5 3 3 4 5 5 5 4 6 27 37 49
88 81 83 87 87 88 84 66 60 56 52 49 44 39 37 37 38 35 22 15 6 3 3 4 5 5 5 5 8 39 58 62
92 86 85 85 79 78 66 53 48 50 50 46 42 41 39 39 38 38 30 24 13 4 3 4 4 5 6 6 11 30 48 61
95 88 83 78 74 63 52 46 44 48 52 49 48 45 40 41 40 42 37 34 28 13 3 3 4 5 5 6 7 14 33 50
100 94 81 72 68 59 51 45 44 49 49 48 42 39 34 41 47 46 44 42 39 32 14 2 3 4 5 5 7 7 6 8
96 90 84 78 71 62 52 46 44 48 44 47 47 52 50 50 49 52 52 47 46 42 33 8 2 3 4 5 6 7 7 7
94 91 89 77 76 66 51 47 42 45 48 49 49 52 55 54 50 51 52 49 49 50 47 26 4 3 4 4 6 8 8 8
93 89 90 81 79 70 53 47 40 45 50 50 48 51 57 58 59 61 59 55 55 58 55 45 11 4 4 5 5 7 9 9
91 81 81 74 76 76 55 44 39 45 48 46 49 52 55 59 63 68 68 66 66 61 58 51 23 6 5 5 6 7 9 10
90 86 79 74 74 79 68 43 37 42 45 48 51 52 54 56 59 68 71 73 69 61 57 53 34 10 6 7 7 8 9 11
89 85 79 73 74 79 73 56 36 36 43 47 50 50 50 55 62 64 68 73 66 57 55 55 40 17 7 6 7 8 8 11
84 80 73 70 76 79 74 66 47 38 40 44 48 50 52 54 59 64 70 76 70 60 57 60 43 24 10 7 8 9 10 12
74 76 71 73 75 75 71 66 59 44 37 42 48 52 55 56 60 66 72 77 78 68 62 58 45 27 14 9 10 10 12 12
71 70 68 70 70 69 67 66 61 57 47 42 49 54 58 60 63 68 74 82 88 80 68 64 57 35 18 12 10 12 13 13
70 66 58 59 62 61 59 59 60 58 55 50 51 53 57 63 66 67 75 81 88 83 72 67 81 54 23 18 14 11 14 16
59 55 54 52 53 53 58 62 60 60 57 53 51 56 60 64 70 72 79 86 91 83 84 73 90 48 39 24 17 12 14 19
48 54 54 52 46 50 56 58 59 62 61 56 52 55 62 65 76 73 80 85 90 85 86 88 90 81 35 27 19 14 17 19
47 51 52 54 55 58 57 62 63 60 63 63 59 57 62 68 80 75 78 82 90 88 86 93 95 65 40 31 24 20 22 24
45 47 49 48 49 49 52 54 55 58 63 64 64 62 65 65 74 74 78 83 90 91 87 93 90 82 47 38 30 28 29 30